ARIANE 5 DEB (SYLDA), 32255

Orbit data source: Space-Track

ARIANE 5 DEB (SYLDA), 32255 is space debris in HEO originally from a launch on Fri, 05 Oct 2007 UTC launched from the French Guiana (FRGUI). Debris objects in space refer to the collection of defunct objects orbiting the Earth. Examples of debris include non-operational satellites, rocket bodies, and fragments generated from explosions, collisions, or faulty payload assembly.

Loading next visibility...
Identifier
32255, 2007-044D
Orbit
HEO
Last TLE update
16 hours ago
Origin
Manufacturer
EADS/Bremen
Mission
Spacecraft
Bus & Motor
SYLDA 5, Unknown motor
Mass
440 kg wet, 440 kg dry
Launch date (UTC)
2007-10-05 (18 years ago)
Launch vehicle
Unknown
Launch site
French Guiana (FRGUI)
Object type
Payload
Rocket body
Debris
Shape & HBR
Cyl, 5.2 m
Radar Cross Section
26.330 m², Large (>1 m²)

Expand to show TLE details & history

TLE from 16 hours ago
0 ARIANE 5 DEB (SYLDA)
1 32255U 07044D   25128.59751039 -.00000074  00000-0  12889-2 0  9991
2 32255   3.9853 221.0891 7168474  12.6058 284.5459  2.26726105145478
Epoch: 2025-05-08T14:20Z
Definitive object data (Epoch: 2025-05-08T14:20:24.897Z)
Latitude
-2.71439°
Longitude
1.74548°
Altitude
25,011.986 km
Speed
3.018 km/s
True Right ascension
05h 34m 03s
True Declination
-2° 42' 39"
Sunlit
Object was in daylight at TLE epoch
Visualization TLE readout
Latitude
0.30602°
Longitude
-45.1143°
Altitude
31,338.964 km
Speed
2.202 km/s
Apparent Right ascension
02h 27m 33s
Apparent Declination
-5° 11' 20"
Sunlit
Object is in daylight
Visualization observer readout
Local Sidereal Time
14:34:48
Azimuth
3.166° NNE
Elevation
-55.234°
Doppler factor
1
Orbital elements
Apogee altitude
35,651.887 km
Perigee altitude
553.703 km
Semi-major axis
24,480.932 km
Eccentricity
0.7168474
Inclination
3.9853°
RAAN
221.0891°
Arg. of periapsis
12.6058°
True anomaly
209.97981°
Mean anomaly
284.5459°
Eccentric anomaly
246.796°
Mean motion
0.56663 °/min
BSTAR
0.0012889
Orbital period
635.33 mins
Loading maneuver chart data...
Loading SW <> Apogee altitude chart data...
Loading historical data...
Loading historical data...
Loading historical data...
Loading historical data...
Loading historical data...
Loading historical data...
Loading historical data...
Other satellites on launch #44 in the year 2007 (2007-10-05 UTC)

ARIANE 5 DEB (SYLDA) Visibility forecast

Observer location: undefined°, undefined°

Span
Click to sort rows by Start time (UTC) header in descending order
Start Az.
Max El. time (UTC)
Max El. Az.
Max El.
End time (UTC)
End Az.
585 mins2025-05-09 14:04:58.623Z213.833° SW2025-05-09 19:17:58.623Z173.785° S33.995°2025-05-09 23:49:58.623Z150.804° SSE
|